Regional Weather Roundup
Issued by NWS

Home | Current Version | Previous Version | Text Only | Print | Product List | Glossary On
Versions: 1 2 3 4 5 6 7 8 9 10 11 12 13 14 15 16 17 18 19 20 21 22 23 24 25 26 27 28 29 30 31 32 33 34 35 36 37 38 39 40 41 42 43 44 45 46 47 48 49 50
000
ASUS43 KDMX 221807
RWRIA

WEATHER ROUNDUP FOR IOWA
NATIONAL WEATHER SERVICE DES MOINES IA
100 PM CDT FRI AUG 22 2014

NOTE: "FAIR" INDICATES FEW OR NO CLOUDS BELOW 12,000 FEET WITH NO
SIGNIFICANT WEATHER AND/OR OBSTRUCTIONS TO VISIBILITY.

* - THESE STATIONS ARE NOT NWS STATIONS...THUS NOT UNDER NWS
QUALITY CONTROL.  THEY ALSO DO NOT REPORT WEATHER SUCH
AS PRECIPITATION OR FOG.

IAZ001>003-012>014-020>022-031>034-043>046-221900-
   NORTHWEST IOWA

CITY           SKY/WX    TMP DP  RH WIND       PRES   REMARKS
CARROLL *      MOSUNNY   86  77  74 E6        29.94S HX  97
CHEROKEE *     PTSUNNY   80  76  87 NE9       29.97R HX  85
DENISON *      MOSUNNY   86  75  70 NE5       29.93R HX  95
LE MARS *      MOSUNNY   84  73  70 NE12      29.97S HX  91
ORANGE CITY *  PTSUNNY   82  70  65 E8        29.98S HX  86
SHELDON *      PTSUNNY   79  73  83 E9        29.98S HX  82
SIOUX CITY     PTSUNNY   87  72  60 N8        29.94S HX  93
6HR MIN TEMP:  75; 6HR MAX TEMP:  88;

SPENCER        CLOUDY    77  71  82 NE10      30.00R
6HR MIN TEMP:  65; 6HR MAX TEMP:  77;

STORM LAKE *   PTSUNNY   81  81 100 NE7G13    29.98S HX  91
$$

IAZ055>058-069>071-079>083-090>094-221900-
   SOUTHWEST IOWA

CITY           SKY/WX    TMP DP  RH WIND       PRES   REMARKS
ATLANTIC *     SUNNY     86  75  70 CALM      29.92F HX  95
AUDUBON *      SUNNY     88  81  79 CALM      29.95S HX 105
CLARINDA *     SUNNY     82  75  78 CALM      29.93F HX  89
COUNCIL BLFS * MOSUNNY   86  77  74 SW5       29.92S HX  97
CRESTON *      MOSUNNY   84  75  74 SW3       29.97R HX  92
HARLAN  *      MOSUNNY   88  77  70 CALM      29.97S HX 100
LAMONI         CLOUDY    83  76  79 SW7       29.96R HX  91
6HR MIN TEMP:  74; 6HR MAX TEMP:  85;

RED OAK *      MOSUNNY   86  75  70 S5        29.93S HX  95
SHENANDOAH *   SUNNY     84  75  74 SE6       29.92F HX  92
$$

IAZ047>049-059>061-072>074-084-221900-
   CENTRAL IOWA

CITY           SKY/WX    TMP DP  RH WIND       PRES   REMARKS
AMES           MOSUNNY   85  76  74 SW5       29.94S HX  94
6HR MIN TEMP:  70; 6HR MAX TEMP:  86;

ANKENY *       MOSUNNY   84  73  70 S8        29.93F HX  91
CHARITON *     SUNNY     86  77  74 S5        29.95S HX  97
DES MOINES     CLOUDY    87  76  69 NW6       29.93F HX  97
6HR MIN TEMP:  73; 6HR MAX TEMP:  87;

GRINNELL*      PTSUNNY   84  75  74 SW6       29.96S HX  92
KNOXVILLE *    MOSUNNY   86  75  70 CALM      29.93F HX  95
MARSHALLTOWN   MOSUNNY   84  73  69 SW7       29.94S HX  90
6HR MIN TEMP:  73; 6HR MAX TEMP:  84;

PELLA *        PTSUNNY   87  76  69 CALM      29.95S HX  98
PERRY *          N/A     82  73  74 CALM      29.94F HX  88
$$

IAZ004>006-015-016-023>025-035-036-221900-
   NORTH CENTRAL IOWA

CITY           SKY/WX    TMP DP  RH WIND       PRES   REMARKS
ALGONA *       PTSUNNY   81  73  78 NE8       29.99S HAZE    HX  85
CLARION *      CLOUDY    82  77  83 E9        29.96S HX  91
ESTHERVILLE    CLOUDY    75  71  87 NE8       30.00R
6HR MIN TEMP:  68; 6HR MAX TEMP:  75;

FORT DODGE *   CLOUDY    82  77  83 NE6       29.96S HX  91
MASON CITY     CLOUDY    82  72  71 NE6       29.99S HX  87
6HR MIN TEMP:  70; 6HR MAX TEMP:  83;

FOREST CITY *  CLOUDY    82  73  74 N6        29.99S HX  88
IOWA FALLS *   PTSUNNY   86  75  71 SE7       29.96S HX  95
$$

IAZ007>011-017>019-026>030-037>042-050>054-066-221900-
   NORTHEAST IOWA

CITY           SKY/WX    TMP DP  RH WIND       PRES   REMARKS
CEDAR RAPIDS   MOSUNNY   85  75  72 SW5       29.95S HX  93
6HR MIN TEMP:  73; 6HR MAX TEMP:  85; 6HR PCP:  0.01;

CHARLES CITY * CLOUDY    77  75  94 N3        29.98R FOG
CLINTON *      CLOUDY    79  73  83 SW9       29.97S HX  82
DECORAH *      CLOUDY    81  75  83 CALM      29.95F HX  86
DUBUQUE        CLOUDY    78  76  93 S6        29.97S FOG     HX  81
6HR MIN TEMP:  72; 6HR MAX TEMP:  78;

MONTICELLO *   MOSUNNY   84  79  84 SW6       29.94F HX  96
OELWEIN *      MOSUNNY   84  77  79 VRB5      29.96F HX  94
WATERLOO       MOSUNNY   86  74  67 SE7       29.93F HX  94
6HR MIN TEMP:  71; 6HR MAX TEMP:  88;

$$

IAZ064-065-067-068-078-221900-
   EAST CENTRAL IOWA

CITY           SKY/WX    TMP DP  RH WIND       PRES   REMARKS
DAVENPORT      CLOUDY    79  75  87 SW14      29.96S HX  83
6HR MIN TEMP:  70; 6HR MAX TEMP:  79; 6HR PCP:  0.39;

IOWA CITY      PTSUNNY   84  76  76 S10       29.96F HX  93
6HR MIN TEMP:  75; 6HR MAX TEMP:  84; 6HR PCP:  0.14;

MT. PLEASANT * PTSUNNY   83  73  70 S8        29.98S HX  89
MUSCATINE *    SUNNY     84  77  79 S10       29.96F HX  94
QUAD CITIES    CLOUDY    79  74  84 SW12      29.94F HX  82
6HR MIN TEMP:  71; 6HR MAX TEMP:  79; 6HR PCP:  0.44;

$$

IAZ062-063-075>077-085>089-095>099-221900-
   SOUTHEAST IOWA

CITY           SKY/WX    TMP DP  RH WIND       PRES   REMARKS
BURLINGTON     CLOUDY    82  75  79 S12       29.98F HX  89
6HR MIN TEMP:  74; 6HR MAX TEMP:  82; 6HR PCP:  0.06;

FAIRFIELD *    MOSUNNY   82  73  74 S9        29.98S HX  88
FORT MADISON * PTSUNNY   84  79  84 S7        29.99S HX  96
KEOKUK *       SUNNY     84  75  74 SE7       29.97S HX  92
OSKALOOSA *      N/A     83  76  79 SE7       29.96F HX  91
CENTERVILLE *  MOSUNNY   82  81  94 CALM      29.98S HX  95
OTTUMWA        CLOUDY    83  75  77 S6        29.94F HX  90
6HR MIN TEMP:  73; 6HR MAX TEMP:  84; 6HR PCP: TRACE;

WASHINGTON *   SUNNY     82  75  78 S12       29.97F HX  89
$$

ABBREVIATIONS USED IN REMARKS
   TC - TEMPERATURES IN CELSIUS
  WCI - WIND CHILL INDEX
   HX - HEAT INDEX
  VSB - VISIBILITY
$$



USA.gov is the U.S. government's official web portal to all federal, state and local government web resources and services.